Date,TemperatureHighF,TemperatureAvgF,TemperatureLowF,DewpointHighF,DewpointAvgF,DewpointLowF,HumidityHigh,HumidityAvg,HumidityLow,PressureMaxIn,PressureMinIn,WindSpeedMaxMPH,WindSpeedAvgMPH,GustSpeedMaxMPH,PrecipitationSumIn
2013-1-1,54,52,46,53,50,42,99,94,74,30.10,29.93,18,2,20,0.92
2013-1-2,46,40,37,44,38,35,96,93,88,30.23,30.05,12,3,18,0.00
2013-1-3,44,36,26,35,31,25,96,84,59,30.41,30.20,11,3,14,0.00
2013-1-4,51,34,23,33,26,21,97,76,32,30.48,30.38,11,1,12,0.00
2013-1-5,49,37,27,40,32,25,98,82,44,30.45,30.29,5,1,7,0.07
2013-1-6,50,41,32,41,38,31,98,90,67,30.33,30.22,10,1,12,0.00
2013-1-7,55,38,24,37,32,23,98,79,44,30.41,30.29,10,2,12,0.00
2013-1-8,60,48,34,48,41,31,94,78,63,30.36,30.25,8,2,10,0.00
2013-1-9,58,54,49,57,52,46,97,92,84,30.39,30.29,7,3,10,0.03
2013-1-10,65,61,55,64,60,55,99,96,88,30.35,30.03,18,4,38,0.11
2013-1-11,67,64,62,65,63,61,99,95,87,30.14,30.06,14,4,22,0.40
2013-1-12,72,67,64,66,64,60,98,89,79,30.11,29.97,15,5,18,0.01
2013-1-13,71,65,51,66,62,50,97,91,81,30.08,29.92,16,7,25,1.48
2013-1-14,50,43,37,49,42,36,98,97,95,30.24,30.07,13,4,17,0.85
2013-1-15,48,45,42,48,45,41,99,98,98,30.13,29.94,8,2,10,0.66
2013-1-16,48,44,42,48,43,41,99,98,96,30.09,29.94,9,2,11,0.20
2013-1-17,44,39,33,43,37,32,99,94,86,30.39,29.89,16,5,24,0.34
2013-1-18,53,37,27,37,32,27,98,84,42,30.58,30.39,11,2,13,0.01
2013-1-19,57,38,26,38,31,26,99,80,38,30.46,30.25,10,1,13,0.01
2013-1-20,63,43,28,43,36,27,99,80,44,30.28,30.14,10,1,11,0.00
2013-1-21,53,40,29,45,31,21,99,74,40,30.26,30.13,19,3,20,0.00
2013-1-22,46,35,24,28,22,18,88,62,38,30.41,30.25,10,2,14,0.00
2013-1-23,55,42,27,44,33,24,92,72,45,30.43,30.22,12,1,16,0.00
2013-1-24,55,49,40,46,33,22,90,59,31,30.35,30.20,13,3,14,0.00
2013-1-25,63,51,40,56,39,20,98,65,44,30.31,30.08,16,4,24,0.15
2013-1-26,58,47,39,49,39,33,98,77,40,30.33,30.16,10,2,13,0.00
2013-1-27,58,51,46,43,38,35,78,63,47,30.39,30.29,10,2,15,0.00
2013-1-28,64,53,45,56,48,38,97,83,61,30.35,30.22,12,2,15,0.00
2013-1-29,69,60,44,65,58,44,99,94,84,30.22,29.83,16,3,23,0.01
2013-1-30,70,56,38,67,53,30,98,89,71,30.00,29.60,26,8,34,2.35
2013-1-31,51,39,32,31,29,25,87,68,38,30.23,30.00,15,4,22,0.00
2013-2-1,43,35,24,33,20,9,87,56,26,30.47,30.19,14,4,19,0.00
2013-2-2,52,35,22,42,28,19,98,77,40,30.40,30.16,11,1,14,0.09
2013-2-3,58,44,32,42,33,29,99,72,35,30.21,30.08,14,3,23,0.01
2013-2-4,52,40,28,39,33,26,96,77,45,30.16,30.00,9,1,13,0.00
2013-2-5,55,49,41,53,46,36,98,89,75,30.07,29.97,7,1,10,0.00
2013-2-6,67,52,41,50,43,33,99,77,29,30.21,30.07,7,1,10,0.02
2013-2-7,52,48,46,49,46,42,97,94,70,30.11,29.93,11,3,14,0.19
2013-2-8,53,47,31,51,44,30,98,91,73,30.27,29.95,15,3,19,0.12
2013-2-9,62,43,28,42,35,27,98,77,34,30.34,30.18,11,2,14,0.01
2013-2-10,57,53,47,57,47,37,99,81,57,30.20,29.98,14,4,23,1.35
2013-2-11,58,53,47,57,52,47,99,97,92,30.16,29.98,16,2,23,0.31
2013-2-12,48,45,43,48,43,39,99,92,70,30.18,29.80,13,3,17,0.55
2013-2-13,48,44,32,48,41,31,99,91,80,30.06,29.74,20,4,24,0.03
2013-2-14,57,43,32,42,37,31,98,81,49,30.14,30.05,7,1,14,0.00
2013-2-15,62,46,29,44,36,28,99,72,40,30.16,30.03,12,3,19,0.00
2013-2-16,45,37,27,36,22,15,74,57,34,30.26,30.05,21,6,25,0.00
2013-2-17,50,33,18,26,20,13,94,62,25,30.36,30.25,11,1,12,0.00
2013-2-18,60,46,29,37,30,22,86,58,36,30.34,29.97,22,6,27,0.00
2013-2-19,56,48,38,49,35,22,98,66,28,30.25,29.97,18,4,27,0.44
2013-2-20,46,37,24,30,22,13,95,60,27,30.28,30.16,12,3,14,0.00
2013-2-21,63,46,30,47,32,21,96,63,27,30.20,29.89,12,3,17,0.92
2013-2-22,52,49,46,50,48,45,98,96,94,30.10,29.94,11,3,18,0.57
2013-2-23,59,48,39,53,46,38,98,93,77,30.00,29.87,9,2,11,0.10
2013-2-24,64,46,30,43,37,30,99,76,39,30.09,29.94,10,2,12,0.16
2013-2-25,55,48,42,51,43,34,96,83,61,29.98,29.58,14,4,21,0.07
2013-2-26,51,47,43,50,41,35,98,82,68,29.85,29.50,19,6,25,0.18
2013-2-27,58,48,36,39,36,32,89,64,42,29.96,29.85,18,5,23,0.11
2013-2-28,45,40,36,35,31,28,85,71,57,30.08,29.93,16,5,20,0.06
2013-3-1,42,38,35,33,30,28,90,73,60,30.11,30.03,13,3,16,0.04
2013-3-2,38,35,32,31,29,27,87,79,67,30.16,30.06,14,4,18,0.02
2013-3-3,45,34,26,28,22,16,86,64,31,30.20,30.11,18,4,20,0.10
2013-3-4,62,44,25,46,30,22,95,63,32,30.21,29.97,19,4,20,0.34
2013-3-5,66,51,32,58,46,29,95,82,68,30.06,29.73,21,7,29,0.08
2013-3-6,44,36,29,31,27,23,92,69,57,30.30,30.04,17,6,25,0.05
2013-3-7,58,40,24,35,30,23,96,72,35,30.36,30.25,10,2,13,0.01
2013-3-8,65,44,28,38,30,17,97,64,18,30.38,30.23,9,2,13,0.00
2013-3-9,68,55,37,38,34,30,80,49,30,30.29,30.09,17,3,19,0.00
2013-3-10,74,63,53,52,43,34,69,49,36,30.11,29.94,20,6,28,0.00
2013-3-11,62,52,36,55,48,35,97,85,67,29.97,29.83,17,5,23,0.82
2013-3-12,58,44,34,38,33,31,94,70,38,30.19,29.97,18,4,20,0.00
2013-3-13,55,42,29,36,27,20,98,60,30,30.38,30.18,17,5,22,0.00
2013-3-14,58,42,26,34,24,16,83,53,20,30.46,30.28,12,3,15,0.00
2013-3-15,75,54,30,48,39,28,97,62,32,30.29,29.99,15,3,23,0.00
2013-3-16,76,62,50,48,45,41,82,55,33,30.04,29.89,19,5,23,0.00
2013-3-17,70,60,47,57,52,46,98,76,55,30.02,29.88,17,3,21,0.00
2013-3-18,74,60,50,64,57,49,98,90,69,29.90,29.76,17,5,28,0.06
2013-3-19,63,52,39,53,38,28,94,64,28,30.12,29.90,16,5,18,0.00
2013-3-20,60,49,38,37,27,19,90,44,27,30.19,29.99,15,4,22,0.00
2013-3-21,50,41,32,31,22,12,80,50,23,30.09,29.96,13,3,17,0.00
2013-3-22,50,42,36,44,38,25,94,86,50,30.07,29.96,9,2,14,0.15
2013-3-23,59,52,46,55,49,44,98,91,84,29.97,29.65,13,3,23,0.84
2013-3-24,64,52,41,57,47,29,97,83,61,29.84,29.55,25,6,35,0.54
2013-3-25,45,39,34,30,25,22,69,59,43,30.19,29.84,25,8,26,0.00
2013-3-26,41,36,30,29,26,24,81,67,55,30.38,30.17,18,4,21,0.00
2013-3-27,55,40,24,33,28,23,96,65,33,30.43,30.30,11,2,17,0.00
2013-3-28,64,46,28,38,32,27,97,65,28,30.39,30.26,13,2,18,0.00
2013-3-29,70,54,33,48,38,32,98,61,28,30.34,30.16,18,2,20,0.00
2013-3-30,70,58,44,58,50,41,98,77,47,30.18,29.99,10,1,14,0.35
2013-3-31,68,60,55,59,57,53,98,89,70,30.00,29.86,18,3,27,0.02
2013-4-1,72,61,49,58,49,40,99,71,33,30.08,29.88,12,3,17,0.01
2013-4-2,68,53,42,46,40,32,97,64,38,30.22,30.07,12,4,17,0.00
2013-4-3,54,48,45,45,36,28,96,66,44,30.18,30.08,12,5,17,0.34
2013-4-4,48,46,44,47,45,43,97,96,93,30.10,29.96,12,4,17,0.56
2013-4-5,66,51,41,49,43,39,98,78,40,30.13,29.98,15,4,20,0.05
2013-4-6,74,56,35,48,41,34,99,64,28,30.18,30.06,13,2,19,0.00
2013-4-7,76,60,43,54,49,41,98,71,46,30.17,30.02,15,3,22,0.00
2013-4-8,78,66,51,62,56,50,98,73,47,30.10,30.00,18,4,22,0.00
2013-4-9,82,70,55,62,58,53,96,70,45,30.15,30.00,15,4,19,0.00
2013-4-10,83,70,54,64,59,53,98,70,42,30.06,29.86,19,4,23,0.00
2013-4-11,78,67,60,68,62,57,98,85,68,29.88,29.57,20,4,28,1.04
2013-4-12,67,55,44,58,46,41,95,75,40,30.00,29.69,16,4,18,0.00
2013-4-13,76,58,40,52,44,39,99,67,27,30.09,29.97,14,2,16,0.00
2013-4-14,58,54,45,55,51,44,96,91,80,30.06,29.84,13,2,20,0.27
2013-4-15,70,63,57,63,59,55,97,87,75,30.07,29.90,10,2,15,0.01
2013-4-16,81,70,62,69,65,59,94,84,67,30.17,30.07,11,2,17,0.00
2013-4-17,84,74,62,71,67,61,99,81,60,30.17,30.01,14,3,16,0.00
2013-4-18,80,72,62,67,63,59,92,74,53,30.03,29.75,21,6,29,0.00
2013-4-19,72,53,42,67,48,37,96,86,62,30.16,29.70,22,6,32,0.54
2013-4-20,63,48,32,43,36,31,98,70,33,30.27,30.17,15,3,18,0.00
2013-4-21,70,55,36,48,41,35,98,64,34,30.32,30.19,10,2,16,0.00
2013-4-22,73,61,50,56,49,42,90,66,48,30.27,30.10,11,3,15,0.00
2013-4-23,75,63,51,56,51,44,94,66,49,30.19,30.03,11,3,15,0.00
2013-4-24,66,58,50,64,56,46,98,92,81,30.22,30.03,14,3,20,0.18
2013-4-25,67,52,39,46,42,36,96,71,32,30.36,30.21,13,3,16,0.00
2013-4-26,76,57,36,56,43,35,99,68,27,30.38,30.21,9,1,13,0.00
2013-4-27,77,66,57,64,58,50,96,75,52,30.25,30.00,15,3,20,0.00
2013-4-28,70,64,0,67,62,56,99,94,86,30.06,29.94,11,2,17,0.74
2013-4-29,76,64,53,61,57,51,99,82,44,30.03,29.91,7,1,12,0.00
2013-4-30,80,65,48,66,57,48,99,77,45,30.02,29.94,6,1,12,0.00
2013-5-1,71,67,61,63,60,56,89,78,69,30.11,29.98,16,4,17,0.00
2013-5-2,67,64,61,62,59,55,89,84,75,30.13,30.04,11,4,15,0.00
2013-5-3,71,64,59,60,58,57,96,82,63,30.04,29.87,16,4,21,0.43
2013-5-4,59,47,42,58,44,41,97,90,71,29.99,29.87,18,3,19,1.30
2013-5-5,58,47,38,51,45,37,99,92,66,29.93,29.82,13,2,15,0.16
2013-5-6,60,51,46,54,49,45,98,94,81,29.94,29.83,12,2,19,0.39
2013-5-7,70,56,46,58,51,46,99,84,54,30.03,29.91,8,1,14,0.08
2013-5-8,77,62,46,63,55,45,99,80,52,30.09,30.01,9,1,12,0.00
2013-5-9,81,66,50,64,58,50,99,78,45,30.13,30.02,9,1,11,0.00
2013-5-10,74,65,58,62,59,57,99,84,60,30.09,29.93,13,2,19,0.00
2013-5-11,76,65,56,67,62,55,99,90,67,30.01,29.90,11,2,21,0.00
2013-5-12,68,57,43,56,46,39,99,71,35,30.16,30.00,13,3,16,0.00
2013-5-13,71,55,37,51,43,36,98,69,35,30.30,30.15,11,2,14,0.00
2013-5-14,80,64,45,60,53,44,99,72,43,30.25,30.10,13,2,16,0.00
2013-5-15,84,68,52,62,57,51,99,75,40,30.19,30.02,10,1,19,0.00
2013-5-16,80,69,60,65,60,49,98,75,34,30.07,29.97,12,2,16,0.00
2013-5-17,77,70,64,68,66,62,99,88,70,30.07,29.94,19,2,19,1.18
2013-5-18,79,72,67,74,70,66,99,94,81,30.05,29.95,11,2,14,2.19
2013-5-19,81,72,64,74,70,63,98,92,73,30.07,29.97,17,2,19,0.29
2013-5-20,82,70,59,72,66,59,100,89,68,30.09,29.97,7,1,12,0.01
2013-5-21,86,74,62,72,68,62,100,82,56,30.01,29.84,11,2,15,0.00
2013-5-22,82,72,65,71,67,62,99,87,64,29.94,29.84,14,2,33,0.13
2013-5-23,84,72,59,70,63,59,100,78,44,30.03,29.91,12,2,18,0.00
2013-5-24,75,65,51,61,56,48,96,74,40,30.23,30.02,15,4,20,0.00
2013-5-25,80,62,46,62,52,45,99,73,37,30.31,30.18,11,1,14,0.00
2013-5-26,84,67,50,66,57,49,99,75,40,30.26,30.12,5,1,10,0.00
2013-5-27,84,70,57,71,62,56,99,81,46,30.20,30.06,11,2,17,0.00
2013-5-28,85,73,58,68,63,57,99,75,54,30.15,30.04,10,2,13,0.00
2013-5-29,85,75,61,72,66,59,94,73,55,30.15,30.03,10,3,14,0.00
2013-5-30,83,76,69,73,68,64,87,76,62,30.15,30.02,10,3,14,0.00
2013-5-31,85,77,71,72,68,66,88,75,58,30.12,29.99,13,4,16,0.00
2013-6-1,84,75,67,75,70,65,97,85,70,30.03,29.92,13,3,17,0.11
2013-6-2,83,75,69,72,69,66,99,83,59,29.97,29.86,10,2,12,0.00
2013-6-3,82,74,65,71,68,64,99,83,60,29.96,29.87,14,2,14,0.00
2013-6-4,86,74,61,73,67,60,99,81,55,30.00,29.91,7,1,10,0.00
2013-6-5,85,71,67,76,69,66,98,93,72,29.96,29.83,12,2,19,0.26
2013-6-6,80,73,65,73,69,65,99,90,74,29.89,29.72,5,1,10,0.04
2013-6-7,79,70,64,73,69,64,99,95,77,29.88,29.69,20,2,29,0.03
2013-6-8,83,72,62,73,68,62,100,89,63,30.02,29.86,5,1,9,0.01
2013-6-9,82,73,70,75,70,68,98,92,73,30.05,29.92,15,3,24,0.39
2013-6-10,86,76,68,74,70,67,98,83,55,30.00,29.91,11,3,15,0.31
2013-6-11,90,80,71,77,74,70,98,83,58,30.05,29.96,10,2,15,0.00
2013-6-12,91,80,68,78,73,68,100,82,56,30.07,29.96,7,1,11,0.00
2013-6-13,89,79,67,78,73,67,100,85,65,29.97,29.77,18,3,24,0.01
2013-6-14,83,73,63,72,65,62,99,78,52,29.99,29.86,13,3,15,0.00
2013-6-15,86,73,58,72,65,58,99,79,51,30.08,29.98,7,1,13,0.00
2013-6-16,88,76,64,76,69,63,97,81,61,30.10,29.95,15,2,16,0.00
2013-6-20,85,79,68,72,69,67,97,75,59,30.15,30.07,9,2,11,0.00
2013-6-21,85,75,67,72,68,66,98,81,57,30.21,30.09,7,1,11,0.00
2013-6-22,84,74,64,70,67,64,99,80,53,30.19,30.05,6,1,11,0.00
2013-6-23,85,74,63,74,69,63,99,86,63,30.17,30.05,9,1,11,0.00
2013-6-24,81,74,69,75,72,68,99,93,79,30.18,30.08,10,2,13,0.00
2013-6-25,88,76,67,77,72,67,100,89,66,30.13,30.00,9,1,19,0.25
2013-6-26,89,78,68,77,73,68,100,86,60,30.06,29.91,15,2,17,0.00
2013-6-27,91,79,69,80,75,68,99,88,67,29.99,29.81,14,2,16,0.12
2013-6-28,88,80,73,79,74,72,99,85,62,29.85,29.68,16,2,27,0.14
2013-6-29,86,77,67,75,70,62,99,83,45,29.73,29.65,9,2,16,0.00
2013-6-30,86,74,62,72,66,60,99,80,43,29.77,29.69,5,1,9,0.00
2013-7-1,84,72,64,72,67,63,99,85,55,29.89,29.74,5,1,8,0.00
2013-7-2,85,73,62,72,67,61,99,83,54,30.03,29.88,7,1,13,0.00
2013-7-3,79,72,65,74,70,64,99,92,82,30.09,30.00,11,2,20,0.99
2013-7-4,76,72,70,73,70,68,97,94,82,30.07,29.99,15,4,31,0.31
2013-7-5,74,72,70,72,70,68,98,95,90,30.13,30.04,11,3,15,0.12
2013-7-6,73,71,70,72,71,70,99,98,96,30.11,30.04,6,1,9,0.49
2013-7-7,81,75,71,75,73,71,100,93,79,30.14,30.06,9,2,11,0.06
2013-7-8,83,74,68,77,72,68,99,94,79,30.17,30.09,11,1,11,0.02
2013-7-9,87,78,70,79,74,69,100,91,70,30.17,30.04,6,1,9,0.00
2013-7-10,89,77,70,81,73,69,100,90,66,30.08,29.93,9,1,18,0.13
2013-7-11,85,76,70,77,73,69,99,91,73,30.00,29.86,10,1,16,0.03
2013-7-12,86,77,69,77,72,68,100,88,65,29.93,29.85,11,2,14,0.00
2013-7-13,82,74,64,74,69,63,99,87,73,30.02,29.91,10,2,13,0.00
2013-7-14,84,76,69,76,72,68,98,87,69,30.10,29.99,10,2,17,0.14
2013-7-15,86,77,72,74,72,71,98,85,62,30.23,30.10,13,3,15,0.03
2013-7-16,87,77,71,76,72,70,98,87,64,30.27,30.19,9,2,13,0.00
2013-7-17,92,78,68,78,72,68,100,85,52,30.28,30.12,9,1,19,0.08
2013-7-18,87,78,69,77,71,68,99,81,60,30.17,30.03,6,1,10,0.01
2013-7-19,0,0,0,75,75,75,0,0,100,30.13,29.98,0,0,0,0.00
2013-7-20,87,36,0,76,74,72,96,37,65,30.05,29.91,9,1,13,32.02
2013-7-21,85,74,70,78,72,69,99,93,71,30.03,29.93,13,2,19,0.17
2013-7-22,81,73,68,76,72,68,99,94,83,30.00,29.88,10,2,14,0.50
2013-7-23,78,71,69,74,70,68,99,97,84,29.99,29.87,14,1,18,0.23
2013-7-24,84,75,69,77,72,68,100,93,73,29.92,29.81,11,1,16,0.12
2013-7-25,84,75,67,73,69,66,100,84,58,30.00,29.85,9,2,12,0.06
2013-7-26,86,74,63,73,69,62,99,84,55,30.04,29.95,5,1,10,0.03
2013-7-27,84,74,66,73,70,66,99,88,61,29.98,29.89,6,1,10,0.03
2013-7-28,85,76,69,76,72,68,99,86,66,30.04,29.91,5,1,6,0.01
2013-7-29,85,74,66,72,68,63,98,83,55,30.16,30.02,7,1,10,0.01
2013-7-30,88,75,61,78,69,61,99,83,58,30.19,30.06,4,1,7,0.00
2013-7-31,84,76,69,78,74,68,99,93,79,30.11,29.93,10,2,16,0.43
2013-8-1,85,76,69,77,72,68,99,89,66,30.01,29.92,10,2,16,1.30
2013-8-2,87,76,65,75,70,65,100,84,54,30.02,29.94,6,1,9,0.00
2013-8-3,86,75,64,78,72,64,100,91,73,30.06,29.98,9,1,14,0.06
2013-8-4,86,77,69,77,73,68,100,89,69,30.06,29.97,13,2,15,1.36
2013-8-5,85,75,67,75,70,66,99,88,66,30.05,29.96,8,1,11,0.00
2013-8-6,85,75,70,78,73,69,99,94,75,30.00,29.92,11,1,17,0.19
2013-8-7,87,76,70,80,74,70,100,93,74,30.01,29.92,16,1,23,0.07
2013-8-8,86,76,68,80,73,67,99,91,69,30.01,29.93,12,1,15,0.21
2013-8-9,88,78,70,80,74,69,100,90,70,30.06,29.97,11,2,16,0.00
2013-8-10,87,78,71,79,74,71,100,89,69,30.11,30.03,11,1,12,0.00
2013-8-11,88,78,69,79,74,69,100,88,66,30.15,30.05,8,1,10,0.03
2013-8-12,87,78,71,79,74,70,100,90,71,30.10,29.98,10,1,16,0.44
2013-8-13,87,76,71,77,73,70,99,91,69,30.01,29.88,8,2,12,0.03
2013-8-14,80,73,66,72,70,65,99,93,72,29.99,29.90,9,2,13,0.02
2013-8-15,76,69,64,71,66,63,99,92,81,30.04,29.95,10,2,13,0.00
2013-8-16,70,67,65,67,65,63,95,92,88,30.08,29.99,10,2,12,0.00
2013-8-17,68,67,65,66,65,64,98,94,91,30.10,30.02,7,1,10,0.02
2013-8-18,73,70,66,71,68,65,99,96,91,30.14,30.05,5,1,10,0.62
2013-8-19,84,75,69,76,72,69,99,91,68,30.10,29.99,9,2,11,0.02
2013-8-20,84,76,71,76,73,71,99,91,75,30.12,30.02,9,1,11,0.01
2013-8-21,87,77,69,77,72,68,100,88,67,30.17,30.06,9,1,14,0.00
2013-8-22,87,77,69,77,73,68,99,87,58,30.14,30.01,5,1,10,0.00
2013-8-23,88,76,67,79,73,67,100,89,63,30.08,29.97,11,0,16,0.05
2013-8-24,86,77,70,77,73,69,99,88,70,30.19,30.02,9,2,11,0.00
2013-8-25,83,75,66,72,69,65,98,83,65,30.29,30.19,9,2,13,0.00
2013-8-26,82,70,60,69,64,59,100,83,56,30.28,30.15,9,1,16,0.00
2013-8-27,85,71,58,74,65,58,100,85,54,30.16,30.05,5,1,10,0.00
2013-8-28,87,74,63,76,69,62,100,86,61,30.08,30.00,7,1,9,0.00
2013-8-29,88,77,66,77,72,66,100,86,63,30.06,29.94,9,1,12,0.00
2013-8-30,90,77,68,80,74,68,100,92,67,30.00,29.89,16,1,27,0.19
2013-8-31,92,80,70,79,75,70,100,86,59,29.94,29.83,6,1,14,0.00
2013-9-1,90,77,69,80,74,68,100,91,65,29.92,29.83,22,1,33,0.27
2013-9-2,83,74,67,77,72,66,100,95,77,30.02,29.85,12,1,21,0.85
2013-9-3,87,77,67,77,73,66,100,89,61,29.98,29.88,8,2,12,0.00
2013-9-4,86,73,62,73,67,62,100,84,53,30.09,29.97,8,1,10,0.01
2013-9-5,86,72,61,74,67,60,100,85,55,30.14,30.06,6,1,12,0.01
2013-9-6,88,73,61,76,68,60,100,87,60,30.13,30.02,7,1,10,0.00
2013-9-7,88,74,65,75,70,64,100,86,55,30.10,29.99,5,1,7,0.01
2013-9-8,88,74,62,77,69,62,100,86,55,30.02,29.94,6,1,9,0.00
2013-9-9,90,76,66,78,72,66,100,88,57,30.06,29.97,5,0,7,0.00
2013-9-10,88,76,69,79,73,68,100,90,62,30.17,30.06,7,1,12,0.01
2013-9-11,87,75,65,76,70,65,100,85,54,30.20,30.08,8,1,8,0.00
2013-9-12,88,75,62,75,69,62,100,84,53,30.09,29.92,6,1,9,0.02
2013-9-13,84,73,58,72,66,57,100,83,55,29.93,29.84,13,2,15,0.00
2013-9-14,77,63,51,63,56,50,100,81,45,30.04,29.93,10,1,12,0.00
2013-9-15,86,67,54,70,61,53,100,85,44,30.12,30.04,9,1,14,0.01
2013-9-16,86,70,58,72,64,58,100,84,48,30.15,30.05,9,1,11,0.00
2013-9-17,84,71,58,73,66,58,100,86,67,30.16,30.06,8,2,12,0.01
2013-9-18,82,71,65,71,66,63,97,84,66,30.18,30.07,12,2,15,0.00
2013-9-19,84,72,60,70,66,60,100,83,55,30.16,30.04,7,1,11,0.00
2013-9-20,85,73,60,72,67,60,100,83,59,30.06,29.85,9,2,13,0.07
2013-9-21,74,70,60,73,69,60,99,97,93,29.85,29.75,15,3,21,0.91
2013-9-22,78,63,51,64,58,50,100,86,46,29.88,29.80,12,2,15,0.01
2013-9-23,83,68,55,68,62,55,99,83,55,29.96,29.86,10,2,12,0.01
2013-9-24,72,68,66,69,67,65,99,95,90,29.96,29.76,13,2,23,0.03
2013-9-25,80,70,66,72,68,65,98,92,73,29.86,29.76,6,2,10,0.00
2013-9-26,79,69,60,69,65,60,99,88,65,30.00,29.84,9,2,12,0.00
2013-9-27,80,66,56,67,60,56,100,84,49,30.12,29.99,10,1,12,0.00
2013-9-28,77,66,55,63,59,54,99,78,53,30.20,30.07,10,2,13,0.00
2013-9-29,76,64,52,66,59,51,99,84,56,30.13,30.00,8,1,12,0.00
2013-9-30,76,64,58,64,60,58,99,88,55,30.08,29.97,10,1,14,0.00
2013-10-1,83,68,58,70,64,57,100,88,57,30.13,30.02,7,1,11,0.00
2013-10-2,82,69,58,70,64,57,100,87,52,30.15,30.04,6,1,10,0.00
2013-10-3,81,70,60,69,65,59,100,87,63,30.11,30.03,11,2,13,0.00
2013-10-4,84,70,59,72,66,59,100,87,62,30.13,30.04,8,1,11,0.00
2013-10-5,86,72,61,71,67,61,100,84,56,30.09,29.96,10,1,12,0.00
2013-10-6,79,70,58,72,68,56,99,92,73,29.96,29.82,16,2,22,0.61
2013-10-7,71,59,49,57,54,48,99,84,54,30.03,29.89,15,4,18,0.05
2013-10-8,77,63,47,67,57,46,99,83,65,30.08,29.98,10,2,17,0.01
2013-10-9,75,66,61,66,60,56,98,82,65,30.17,30.07,9,2,12,0.00
2013-10-10,79,66,55,66,61,55,100,87,57,30.14,30.01,8,1,11,0.00
2013-10-11,80,64,53,67,59,53,100,86,50,30.09,29.99,10,1,11,0.00
2013-10-12,80,64,51,67,59,50,100,85,51,30.10,30.01,10,1,13,0.01
2013-10-13,80,66,55,65,60,54,100,83,52,30.20,30.09,11,1,14,0.00
2013-10-14,79,65,54,67,60,54,100,87,63,30.21,30.08,12,1,15,0.00
2013-10-15,72,64,55,65,60,54,100,90,69,30.12,30.01,5,1,6,0.01
2013-10-16,72,65,56,68,63,56,100,93,80,30.05,29.93,8,1,11,0.09
2013-10-17,72,66,58,68,64,57,100,95,84,29.98,29.89,10,2,14,0.53
2013-10-18,68,57,46,57,53,46,100,86,59,30.07,29.95,12,1,13,0.00
2013-10-19,68,58,49,60,55,47,99,92,70,30.03,29.94,10,1,14,0.02
2013-10-20,68,50,40,52,44,40,99,83,44,30.10,30.01,7,1,11,0.01
2013-10-21,67,52,38,57,48,37,100,87,56,30.14,30.01,6,1,9,0.00
2013-10-22,73,60,47,58,53,46,99,82,44,30.03,29.88,11,1,15,0.01
2013-10-23,61,51,38,51,44,37,99,80,46,30.14,29.91,18,3,19,0.00
2013-10-24,66,48,34,50,42,34,99,82,47,30.27,30.13,9,1,12,0.00
2013-10-25,55,43,31,43,33,29,96,72,37,30.47,30.27,15,3,20,0.00
2013-10-26,63,44,28,45,35,28,98,77,35,30.36,30.18,7,1,12,0.00
2013-10-27,72,56,40,56,49,39,99,81,50,30.18,30.09,9,2,14,0.08
2013-10-28,68,58,53,63,57,53,99,95,78,30.25,30.12,6,0,9,0.07
2013-10-29,77,62,53,64,58,52,100,89,58,30.31,30.19,12,1,13,0.00
2013-10-30,77,63,53,64,58,52,100,87,56,30.28,30.11,10,1,15,0.00
2013-10-31,74,66,58,68,63,56,97,90,81,30.12,29.75,23,6,28,0.13
2013-11-1,72,63,45,68,57,44,98,82,50,29.88,29.74,22,3,27,0.52
2013-11-2,67,53,42,53,44,38,100,74,37,30.13,29.87,19,2,21,0.00
2013-11-3,63,47,34,46,40,34,99,81,43,30.30,30.13,11,2,19,0.00
2013-11-4,66,53,37,47,42,36,98,68,40,30.39,30.28,14,3,18,0.00
2013-11-5,66,55,48,50,43,38,86,64,51,30.41,30.27,11,3,15,0.00
2013-11-6,73,63,48,63,57,44,96,82,69,30.27,30.05,14,3,18,0.00
2013-11-7,65,52,37,62,46,34,98,83,50,30.32,30.04,17,5,22,0.45
2013-11-8,60,44,31,41,35,30,97,76,38,30.40,30.26,17,2,21,0.00
2013-11-9,60,48,34,48,41,33,99,78,47,30.35,30.22,14,1,15,0.00
2013-11-10,70,54,41,50,46,40,97,77,42,30.33,30.22,13,1,13,0.00
2013-11-11,72,49,34,44,37,25,99,71,18,30.32,30.17,6,1,10,0.00
2013-11-12,56,43,32,46,33,18,99,69,43,30.53,30.17,22,7,29,0.00
2013-11-13,50,35,24,25,20,13,93,58,23,30.65,30.49,18,4,18,0.00
2013-11-14,58,37,21,32,25,20,97,69,25,30.52,30.27,11,1,11,0.00
2013-11-15,58,48,35,53,45,32,98,89,71,30.27,30.11,8,1,15,0.31
2013-11-16,65,58,50,62,56,50,99,94,87,30.18,30.06,9,2,12,0.00
2013-11-17,70,65,59,70,65,58,100,97,89,30.06,29.87,15,4,20,0.05
2013-11-18,70,60,44,70,47,34,99,66,30,30.13,29.90,14,4,23,0.07
2013-11-19,57,46,34,38,32,27,92,59,33,30.20,30.10,19,4,21,0.00
2013-11-20,62,51,34,43,37,31,89,62,46,30.27,30.14,12,3,15,0.00
2013-11-21,64,58,52,57,50,42,85,76,66,30.33,30.22,9,2,14,0.00
2013-11-22,64,60,56,61,57,53,99,92,84,30.28,30.17,7,1,10,0.17
2013-11-23,60,48,36,59,43,24,99,82,60,30.38,30.18,20,7,20,0.00
2013-11-24,44,34,28,25,19,13,78,56,29,30.55,30.38,16,6,20,0.00
2013-11-25,45,38,30,37,26,14,96,62,40,30.45,30.09,11,4,18,0.43
2013-11-26,48,41,36,47,40,35,99,97,94,30.09,29.75,18,6,24,1.09
2013-11-27,38,34,23,36,25,17,95,70,51,30.39,29.86,22,8,30,0.03
2013-11-28,50,30,17,28,20,15,95,72,30,30.51,30.38,6,1,9,0.00
2013-11-29,58,36,20,35,25,19,97,73,26,30.59,30.47,10,1,11,0.00
2013-11-30,57,39,25,36,30,24,98,75,35,30.54,30.31,11,1,11,0.00
2013-12-1,57,44,31,45,38,30,98,83,51,30.31,30.00,6,0,7,0.00
2013-12-2,53,50,46,52,49,44,99,97,89,30.00,29.80,4,1,6,0.26
2013-12-3,61,56,49,61,56,49,100,99,96,29.86,29.78,7,1,11,0.00
2013-12-4,72,66,61,66,64,60,99,93,80,29.98,29.84,14,4,20,0.00
2013-12-5,74,69,66,70,68,66,99,96,88,30.03,29.92,13,3,17,0.23
2013-12-6,76,63,39,70,60,38,97,92,79,30.20,29.91,21,7,29,0.28
2013-12-7,40,38,35,38,36,34,96,93,89,30.40,30.20,13,6,17,0.00
2013-12-8,55,48,41,55,47,38,100,98,90,30.27,30.06,8,1,12,2.04
2013-12-9,56,51,44,55,50,44,100,96,89,30.18,30.02,10,2,13,0.39
2013-12-10,44,37,26,44,34,25,99,91,67,30.40,30.02,14,3,22,0.21
2013-12-11,56,37,23,40,30,22,98,80,39,30.48,30.37,9,1,11,0.01
2013-12-12,46,34,26,29,22,12,91,68,26,30.57,30.41,15,3,17,0.00
2013-12-13,49,37,23,36,27,21,95,70,37,30.42,30.12,5,1,7,0.00
2013-12-14,56,50,41,56,48,33,99,92,72,30.12,29.82,16,3,21,0.77
2013-12-15,41,36,32,39,33,29,92,87,81,30.30,29.99,15,4,20,0.00
2013-12-16,57,38,26,38,31,25,98,80,36,30.34,30.21,12,1,15,0.00
2013-12-17,62,44,27,42,36,27,98,74,42,30.30,30.15,16,3,19,0.00
2013-12-18,57,39,25,37,30,24,98,74,32,30.40,30.28,6,1,9,0.00
2013-12-19,62,43,27,39,32,26,97,70,31,30.34,30.15,10,2,15,0.00
2013-12-20,66,58,45,59,49,36,92,73,58,30.17,30.02,14,3,18,0.00
2013-12-21,73,67,59,69,65,57,99,93,85,30.02,29.79,24,8,30,0.16
2013-12-22,71,57,53,68,56,53,99,96,85,30.11,29.78,17,3,28,1.76
2013-12-23,53,42,32,53,40,28,99,90,79,30.43,30.07,15,5,19,0.07
2013-12-24,39,31,22,28,24,20,95,78,54,30.54,30.42,16,4,18,0.00
2013-12-25,49,30,18,31,24,17,96,80,45,30.49,30.34,7,1,10,0.00
2013-12-26,54,36,25,35,29,24,98,80,41,30.43,30.31,7,1,11,0.00
2013-12-27,53,36,23,35,30,22,98,80,42,30.48,30.36,9,1,12,0.01
2013-12-28,42,40,34,41,38,32,98,93,80,30.38,29.94,12,3,18,0.89
2013-12-29,52,43,38,46,42,37,99,94,74,30.11,29.92,9,1,11,0.04
2013-12-30,47,41,34,44,39,34,99,93,85,30.29,30.10,6,1,7,0.00
2013-12-31,43,37,31,35,32,29,96,84,59,30.47,30.28,12,2,14,0.00
2014-1-1,51,40,28,43,36,27,98,87,65,30.37,30.09,8,2,13,0.00
2014-1-2,51,40,25,51,37,16,99,88,66,30.33,29.88,22,6,28,0.28